Avata, Samoa

7:57 PM +14 on December 16, 2019 (GMT +1400)
Faleolo International | | Change Station

Elev 16 ft 13.82 °S, 172.00 °W | Updated 57 minutes ago

Mostly Cloudy
Mostly Cloudy
81 °F
Feels Like 88 °F
N
4
Wind Variable Wind from SSE

Today
High -- | Low -- °F
--% Chance of Precip.
Yesterday
High -- | Low -- °F
Precip. -- in
Pressure 29.68 in
Visibility 6.2 miles
Clouds Few 2300 ft
Scattered Clouds 5000 ft
Mostly Cloudy 18000 ft
Heat Index 88 °F
Dew Point 79 °F
Humidity 94%
Rainfall 0.00 in
Snow Depth Not available.
6:59 AM 7:54 PM
Waning Gibbous, 81% visible
METAR NSFA 160500Z 15003KT 9999 FEW023 SCT050 BKN180 27/26 Q1005 RERA
Pressure 29.68 in
Visibility 6.2 miles
Clouds Few 2300 ft
Scattered Clouds 5000 ft
Mostly Cloudy 18000 ft
Heat Index 88 °F
Dew Point 79 °F
Humidity 94%
Rainfall 0.00 in
Snow Depth Not available.
6:59 AM 7:54 PM
Waning Gibbous, 81% visible
METAR NSFA 160500Z 15003KT 9999 FEW023 SCT050 BKN180 27/26 Q1005 RERA

Get Severe Weather Alerts

Thanks for signing up!

Be on the lookout for a verification email in your inbox.

You'll start receiving the daily forecast at 6 AM.

×

10-Day Weather Forecast

×

Almanac

Astronomy

Dec. 16, 2019 Rise Set
Actual Time
Civil Twilight
Nautical Twilight
Astronomical Twilight
Moon
Length of Visible Light
Length of Day
Tomorrow will be .
, % of the Moon is Illuminated

Today's Extremes

Country Highs Country Lows

Community

WunderPhotos

Category 6

Welcome to Category 6. This is the collective home for Weather Underground's featured writeups by Dr. Jeff Masters (right), Bob Henson (left), Chris Burt, and other regular contributors.

Nearby

Air Quality

  Air Quality AQ Index Pollutant
Not available.

Snow Depth

Station Depth Elevation

Earthquake Activity

City Distance Mag. Time & Date
Minimum magnitude displayed is 2.5.

Coastal Water Temperatures

Place Temperature

Stations

Nearby Weather Stations

Station Location Temp. Windchill Dew Point Humidity Wind Precip. Elev Updated Type